Погода в Пазине

Хорватия     45°14′24″N   13°56′14″E
темп.,
°C
ветер,
м/с
пор.,
м/с
влажн.,
%
обл.,
%
осадки,
мм/ч
давл.,
гПа
погр.,
м
17 августа, ср
ср1723:00+18в22961 0.0 101426
02:00+18всв11976 0.0 101419
05:00+18в11963 0.0 101313
08:00+21вюв118114 0.0 1014133
11:00+27ю22511 0.0 10141214
14:00+30ююз35430 0.0 10132036
17:00+29ю34465 0.0 10131418
20:00+22юв22809 0.0 101319
18 августа, чт
чт1823:00+20в118637 0.0 101313
02:00+20ссв11769 0.0 101311
05:00+20всв21710 0.0 101214
08:00+23вюв2359100 0.0 1012116
11:00+29ююв3442100 0.0 10121095
14:00+30ююв354069 0.0 10111272
17:00+26ю355758 0.0 1011419
20:00+23св2265100 0.0 101030
19 августа, пт
пт1923:00+21ссв3368100 0.1 100944
02:00+20ссз3681100 0.3 1009139
05:00+18вюв2388100 0.4 100962
08:00+18вюв369063 1.8 1008163
11:00+25ю356171 2.1 10091287
14:00+26юв34559 3.0 10091373
17:00+27ююз354177 0.1 10081452
20:00+19зсз118853 0.8 100914
20 августа, сб
сб2023:00+18ссз11938 0.7 101112
02:00+17с229335 2.1 101131
05:00+18ссз118696 0.0 101111
08:00+20ссв11798 0.0 101257
11:00+27св124546 0.0 1012766
14:00+32ссв242794 0.0 10123212
17:00+25ююз2354100 0.0 1013134
20:00+21ссз11610 0.0 101311
21 августа, вс
вс2123:00+20св11630 0.0 101411
02:00+19всв11630 0.0 101511
05:00+18ссв11640 0.0 101411
08:00+22всв11560 0.0 101475
11:00+28ююв22370 0.0 10141424
14:00+30юз343289 0.0 10132698
17:00+28юз2142100 0.0 10121359
20:00+22сз226499 0.0 101336